<?xml version="1.0" encoding="UTF-8" standalone="no" ?>
<gpx xmlns="http://www.topografix.com/GPX/1/1" xmlns:xsi="http://www.w3.org/2001/XMLSchema-instance" xsi:schemaLocation="http://www.topografix.com/GPX/1/1 http://www.topografix.com/GPX/1/1/gpx.xsd" version="1.1" creator="VisuGPX - https://www.visugpx.com">
  <metadata>
    <name>Germond-Rouvre</name>
    <desc><![CDATA[Regroupement de 3 circuits]]></desc>
  </metadata>
  <trk>
    <name><![CDATA[Trace 41]]></name>
    <extensions>
      <line xmlns="http://www.topografix.com/GPX/gpx_style/0/2">
        <color>0011ff</color>
        <width>4</width>
      </line>
    </extensions>
    <trkseg>
      <trkpt lat="46.45566" lon="-0.42041">
        <ele>102</ele>
        <time>2021-09-28T12:38:59Z</time>
      </trkpt>
      <trkpt lat="46.45586" lon="-0.42019">
        <ele>102</ele>
        <time>2021-09-28T12:39:12Z</time>
      </trkpt>
      <trkpt lat="46.45559" lon="-0.41936">
        <ele>102</ele>
        <time>2021-09-28T12:39:43Z</time>
      </trkpt>
      <trkpt lat="46.45568" lon="-0.41932">
        <ele>102</ele>
        <time>2021-09-28T12:39:48Z</time>
      </trkpt>
      <trkpt lat="46.45584" lon="-0.4192">
        <ele>102</ele>
        <time>2021-09-28T12:39:57Z</time>
      </trkpt>
      <trkpt lat="46.45579" lon="-0.41903">
        <ele>102</ele>
        <time>2021-09-28T12:40:03Z</time>
      </trkpt>
      <trkpt lat="46.45555" lon="-0.41854">
        <ele>103</ele>
        <time>2021-09-28T12:40:24Z</time>
      </trkpt>
      <trkpt lat="46.45543" lon="-0.41834">
        <ele>103</ele>
        <time>2021-09-28T12:40:33Z</time>
      </trkpt>
      <trkpt lat="46.45519" lon="-0.41804">
        <ele>102</ele>
        <time>2021-09-28T12:40:49Z</time>
      </trkpt>
      <trkpt lat="46.45505" lon="-0.4179">
        <ele>102</ele>
        <time>2021-09-28T12:40:58Z</time>
      </trkpt>
      <trkpt lat="46.45444" lon="-0.41743">
        <ele>98</ele>
        <time>2021-09-28T12:41:32Z</time>
      </trkpt>
      <trkpt lat="46.45365" lon="-0.41652">
        <ele>91</ele>
        <time>2021-09-28T12:42:23Z</time>
      </trkpt>
      <trkpt lat="46.45347" lon="-0.41636">
        <ele>89</ele>
        <time>2021-09-28T12:42:33Z</time>
      </trkpt>
      <trkpt lat="46.45382" lon="-0.41554">
        <ele>89</ele>
        <time>2021-09-28T12:43:06Z</time>
      </trkpt>
      <trkpt lat="46.45315" lon="-0.41465">
        <ele>81</ele>
        <time>2021-09-28T12:43:52Z</time>
      </trkpt>
      <trkpt lat="46.45291" lon="-0.41458">
        <ele>78</ele>
        <time>2021-09-28T12:44:04Z</time>
      </trkpt>
      <trkpt lat="46.45288" lon="-0.41282">
        <ele>74</ele>
        <time>2021-09-28T12:45:05Z</time>
      </trkpt>
      <trkpt lat="46.45251" lon="-0.41174">
        <ele>78</ele>
        <time>2021-09-28T12:45:46Z</time>
      </trkpt>
      <trkpt lat="46.45244" lon="-0.41066">
        <ele>84</ele>
        <time>2021-09-28T12:46:24Z</time>
      </trkpt>
      <trkpt lat="46.45152" lon="-0.40963">
        <ele>95</ele>
        <time>2021-09-28T12:47:22Z</time>
      </trkpt>
      <trkpt lat="46.45035" lon="-0.40833">
        <ele>101</ele>
        <time>2021-09-28T12:48:36Z</time>
      </trkpt>
      <trkpt lat="46.44966" lon="-0.40742">
        <ele>103</ele>
        <time>2021-09-28T12:49:22Z</time>
      </trkpt>
      <trkpt lat="46.44946" lon="-0.40713">
        <ele>103</ele>
        <time>2021-09-28T12:49:36Z</time>
      </trkpt>
      <trkpt lat="46.449" lon="-0.40631">
        <ele>103</ele>
        <time>2021-09-28T12:50:13Z</time>
      </trkpt>
      <trkpt lat="46.44868" lon="-0.40563">
        <ele>102</ele>
        <time>2021-09-28T12:50:41Z</time>
      </trkpt>
      <trkpt lat="46.44852" lon="-0.40522">
        <ele>103</ele>
        <time>2021-09-28T12:50:58Z</time>
      </trkpt>
      <trkpt lat="46.44839" lon="-0.4048">
        <ele>103</ele>
        <time>2021-09-28T12:51:13Z</time>
      </trkpt>
      <trkpt lat="46.44827" lon="-0.40429">
        <ele>103</ele>
        <time>2021-09-28T12:51:32Z</time>
      </trkpt>
      <trkpt lat="46.44813" lon="-0.40348">
        <ele>104</ele>
        <time>2021-09-28T12:52:01Z</time>
      </trkpt>
      <trkpt lat="46.44806" lon="-0.40292">
        <ele>104</ele>
        <time>2021-09-28T12:52:20Z</time>
      </trkpt>
      <trkpt lat="46.44803" lon="-0.40184">
        <ele>105</ele>
        <time>2021-09-28T12:52:58Z</time>
      </trkpt>
      <trkpt lat="46.44804" lon="-0.4008">
        <ele>105</ele>
        <time>2021-09-28T12:53:34Z</time>
      </trkpt>
      <trkpt lat="46.44746" lon="-0.39887">
        <ele>102</ele>
        <time>2021-09-28T12:54:46Z</time>
      </trkpt>
      <trkpt lat="46.4483" lon="-0.3982">
        <ele>101</ele>
        <time>2021-09-28T12:55:34Z</time>
      </trkpt>
      <trkpt lat="46.44799" lon="-0.39739">
        <ele>101</ele>
        <time>2021-09-28T12:56:06Z</time>
      </trkpt>
      <trkpt lat="46.44785" lon="-0.39705">
        <ele>101</ele>
        <time>2021-09-28T12:56:20Z</time>
      </trkpt>
      <trkpt lat="46.44757" lon="-0.39674">
        <ele>102</ele>
        <time>2021-09-28T12:56:37Z</time>
      </trkpt>
      <trkpt lat="46.44546" lon="-0.39507">
        <ele>106</ele>
        <time>2021-09-28T12:58:38Z</time>
      </trkpt>
      <trkpt lat="46.44504" lon="-0.39471">
        <ele>106</ele>
        <time>2021-09-28T12:59:02Z</time>
      </trkpt>
      <trkpt lat="46.44496" lon="-0.39478">
        <ele>106</ele>
        <time>2021-09-28T12:59:07Z</time>
      </trkpt>
      <trkpt lat="46.4445" lon="-0.39512">
        <ele>107</ele>
        <time>2021-09-28T12:59:33Z</time>
      </trkpt>
      <trkpt lat="46.4438" lon="-0.39555">
        <ele>108</ele>
        <time>2021-09-28T13:00:11Z</time>
      </trkpt>
      <trkpt lat="46.442" lon="-0.3965">
        <ele>107</ele>
        <time>2021-09-28T13:01:46Z</time>
      </trkpt>
      <trkpt lat="46.44125" lon="-0.39672">
        <ele>105</ele>
        <time>2021-09-28T13:02:25Z</time>
      </trkpt>
      <trkpt lat="46.44035" lon="-0.39637">
        <ele>103</ele>
        <time>2021-09-28T13:03:11Z</time>
      </trkpt>
      <trkpt lat="46.43989" lon="-0.39589">
        <ele>102</ele>
        <time>2021-09-28T13:03:40Z</time>
      </trkpt>
      <trkpt lat="46.43948" lon="-0.39518">
        <ele>102</ele>
        <time>2021-09-28T13:04:12Z</time>
      </trkpt>
      <trkpt lat="46.43894" lon="-0.39581">
        <ele>103</ele>
        <time>2021-09-28T13:04:46Z</time>
      </trkpt>
      <trkpt lat="46.43773" lon="-0.39711">
        <ele>104</ele>
        <time>2021-09-28T13:06:02Z</time>
      </trkpt>
      <trkpt lat="46.43649" lon="-0.3987">
        <ele>101</ele>
        <time>2021-09-28T13:07:24Z</time>
      </trkpt>
      <trkpt lat="46.43544" lon="-0.39981">
        <ele>100</ele>
        <time>2021-09-28T13:08:29Z</time>
      </trkpt>
      <trkpt lat="46.43427" lon="-0.40119">
        <ele>99</ele>
        <time>2021-09-28T13:09:45Z</time>
      </trkpt>
      <trkpt lat="46.43347" lon="-0.40213">
        <ele>97</ele>
        <time>2021-09-28T13:10:36Z</time>
      </trkpt>
      <trkpt lat="46.43267" lon="-0.40331">
        <ele>94</ele>
        <time>2021-09-28T13:11:34Z</time>
      </trkpt>
      <trkpt lat="46.43255" lon="-0.40354">
        <ele>94</ele>
        <time>2021-09-28T13:11:43Z</time>
      </trkpt>
      <trkpt lat="46.43291" lon="-0.40396">
        <ele>95</ele>
        <time>2021-09-28T13:12:07Z</time>
      </trkpt>
      <trkpt lat="46.43312" lon="-0.40445">
        <ele>93</ele>
        <time>2021-09-28T13:12:26Z</time>
      </trkpt>
      <trkpt lat="46.43162" lon="-0.40446">
        <ele>92</ele>
        <time>2021-09-28T13:13:42Z</time>
      </trkpt>
      <trkpt lat="46.43162" lon="-0.40472">
        <ele>92</ele>
        <time>2021-09-28T13:13:51Z</time>
      </trkpt>
      <trkpt lat="46.43129" lon="-0.40475">
        <ele>91</ele>
        <time>2021-09-28T13:14:07Z</time>
      </trkpt>
      <trkpt lat="46.43047" lon="-0.40564">
        <ele>91</ele>
        <time>2021-09-28T13:14:58Z</time>
      </trkpt>
      <trkpt lat="46.43005" lon="-0.40604">
        <ele>91</ele>
        <time>2021-09-28T13:15:23Z</time>
      </trkpt>
      <trkpt lat="46.43021" lon="-0.40686">
        <ele>90</ele>
        <time>2021-09-28T13:15:53Z</time>
      </trkpt>
      <trkpt lat="46.43062" lon="-0.40817">
        <ele>84</ele>
        <time>2021-09-28T13:16:42Z</time>
      </trkpt>
      <trkpt lat="46.4313" lon="-0.40992">
        <ele>82</ele>
        <time>2021-09-28T13:17:52Z</time>
      </trkpt>
      <trkpt lat="46.43148" lon="-0.41038">
        <ele>84</ele>
        <time>2021-09-28T13:18:10Z</time>
      </trkpt>
      <trkpt lat="46.43157" lon="-0.41065">
        <ele>85</ele>
        <time>2021-09-28T13:18:20Z</time>
      </trkpt>
      <trkpt lat="46.43199" lon="-0.41234">
        <ele>90</ele>
        <time>2021-09-28T13:19:22Z</time>
      </trkpt>
      <trkpt lat="46.43236" lon="-0.41326">
        <ele>91</ele>
        <time>2021-09-28T13:19:59Z</time>
      </trkpt>
      <trkpt lat="46.433" lon="-0.41443">
        <ele>91</ele>
        <time>2021-09-28T13:20:51Z</time>
      </trkpt>
      <trkpt lat="46.43358" lon="-0.41526">
        <ele>91</ele>
        <time>2021-09-28T13:21:31Z</time>
      </trkpt>
      <trkpt lat="46.43455" lon="-0.41671">
        <ele>89</ele>
        <time>2021-09-28T13:22:41Z</time>
      </trkpt>
      <trkpt lat="46.43437" lon="-0.41701">
        <ele>89</ele>
        <time>2021-09-28T13:22:55Z</time>
      </trkpt>
      <trkpt lat="46.43555" lon="-0.41849">
        <ele>91</ele>
        <time>2021-09-28T13:24:13Z</time>
      </trkpt>
      <trkpt lat="46.43634" lon="-0.4197">
        <ele>92</ele>
        <time>2021-09-28T13:25:10Z</time>
      </trkpt>
      <trkpt lat="46.43741" lon="-0.42156">
        <ele>93</ele>
        <time>2021-09-28T13:26:34Z</time>
      </trkpt>
      <trkpt lat="46.43852" lon="-0.42312">
        <ele>89</ele>
        <time>2021-09-28T13:27:51Z</time>
      </trkpt>
      <trkpt lat="46.43874" lon="-0.42333">
        <ele>88</ele>
        <time>2021-09-28T13:28:04Z</time>
      </trkpt>
      <trkpt lat="46.44105" lon="-0.42244">
        <ele>84</ele>
        <time>2021-09-28T13:30:04Z</time>
      </trkpt>
      <trkpt lat="46.44205" lon="-0.42173">
        <ele>81</ele>
        <time>2021-09-28T13:31:00Z</time>
      </trkpt>
      <trkpt lat="46.44236" lon="-0.421">
        <ele>81</ele>
        <time>2021-09-28T13:31:29Z</time>
      </trkpt>
      <trkpt lat="46.44135" lon="-0.42027">
        <ele>85</ele>
        <time>2021-09-28T13:32:26Z</time>
      </trkpt>
      <trkpt lat="46.44128" lon="-0.41997">
        <ele>86</ele>
        <time>2021-09-28T13:32:37Z</time>
      </trkpt>
      <trkpt lat="46.44149" lon="-0.4195">
        <ele>88</ele>
        <time>2021-09-28T13:32:56Z</time>
      </trkpt>
      <trkpt lat="46.44168" lon="-0.41894">
        <ele>91</ele>
        <time>2021-09-28T13:33:17Z</time>
      </trkpt>
      <trkpt lat="46.4419" lon="-0.4179">
        <ele>91</ele>
        <time>2021-09-28T13:33:55Z</time>
      </trkpt>
      <trkpt lat="46.442" lon="-0.41756">
        <ele>91</ele>
        <time>2021-09-28T13:34:08Z</time>
      </trkpt>
      <trkpt lat="46.44212" lon="-0.41728">
        <ele>90</ele>
        <time>2021-09-28T13:34:19Z</time>
      </trkpt>
      <trkpt lat="46.4424" lon="-0.41682">
        <ele>89</ele>
        <time>2021-09-28T13:34:40Z</time>
      </trkpt>
      <trkpt lat="46.44272" lon="-0.41614">
        <ele>89</ele>
        <time>2021-09-28T13:35:09Z</time>
      </trkpt>
      <trkpt lat="46.44236" lon="-0.41556">
        <ele>91</ele>
        <time>2021-09-28T13:35:36Z</time>
      </trkpt>
      <trkpt lat="46.44335" lon="-0.41403">
        <ele>94</ele>
        <time>2021-09-28T13:36:48Z</time>
      </trkpt>
      <trkpt lat="46.44359" lon="-0.41359">
        <ele>95</ele>
        <time>2021-09-28T13:37:07Z</time>
      </trkpt>
      <trkpt lat="46.44449" lon="-0.41409">
        <ele>91</ele>
        <time>2021-09-28T13:37:56Z</time>
      </trkpt>
      <trkpt lat="46.44499" lon="-0.41373">
        <ele>93</ele>
        <time>2021-09-28T13:38:23Z</time>
      </trkpt>
      <trkpt lat="46.44537" lon="-0.41393">
        <ele>92</ele>
        <time>2021-09-28T13:38:44Z</time>
      </trkpt>
      <trkpt lat="46.44626" lon="-0.4142">
        <ele>92</ele>
        <time>2021-09-28T13:39:29Z</time>
      </trkpt>
      <trkpt lat="46.44698" lon="-0.41433">
        <ele>93</ele>
        <time>2021-09-28T13:40:05Z</time>
      </trkpt>
      <trkpt lat="46.44743" lon="-0.41467">
        <ele>92</ele>
        <time>2021-09-28T13:40:31Z</time>
      </trkpt>
      <trkpt lat="46.44807" lon="-0.41585">
        <ele>87</ele>
        <time>2021-09-28T13:41:23Z</time>
      </trkpt>
      <trkpt lat="46.44859" lon="-0.41676">
        <ele>80</ele>
        <time>2021-09-28T13:42:03Z</time>
      </trkpt>
      <trkpt lat="46.44892" lon="-0.41724">
        <ele>76</ele>
        <time>2021-09-28T13:42:27Z</time>
      </trkpt>
      <trkpt lat="46.44903" lon="-0.41754">
        <ele>74</ele>
        <time>2021-09-28T13:42:39Z</time>
      </trkpt>
      <trkpt lat="46.44926" lon="-0.41797">
        <ele>70</ele>
        <time>2021-09-28T13:42:57Z</time>
      </trkpt>
      <trkpt lat="46.44953" lon="-0.41817">
        <ele>68</ele>
        <time>2021-09-28T13:43:12Z</time>
      </trkpt>
      <trkpt lat="46.45016" lon="-0.41806">
        <ele>68</ele>
        <time>2021-09-28T13:43:44Z</time>
      </trkpt>
      <trkpt lat="46.45049" lon="-0.41821">
        <ele>68</ele>
        <time>2021-09-28T13:44:02Z</time>
      </trkpt>
      <trkpt lat="46.45073" lon="-0.41862">
        <ele>71</ele>
        <time>2021-09-28T13:44:20Z</time>
      </trkpt>
      <trkpt lat="46.45067" lon="-0.41927">
        <ele>76</ele>
        <time>2021-09-28T13:44:43Z</time>
      </trkpt>
      <trkpt lat="46.45057" lon="-0.41955">
        <ele>78</ele>
        <time>2021-09-28T13:44:54Z</time>
      </trkpt>
      <trkpt lat="46.45032" lon="-0.41994">
        <ele>81</ele>
        <time>2021-09-28T13:45:12Z</time>
      </trkpt>
      <trkpt lat="46.45028" lon="-0.42025">
        <ele>83</ele>
        <time>2021-09-28T13:45:23Z</time>
      </trkpt>
      <trkpt lat="46.45048" lon="-0.42091">
        <ele>89</ele>
        <time>2021-09-28T13:45:48Z</time>
      </trkpt>
      <trkpt lat="46.4505" lon="-0.42133">
        <ele>91</ele>
        <time>2021-09-28T13:46:02Z</time>
      </trkpt>
      <trkpt lat="46.4504" lon="-0.42198">
        <ele>92</ele>
        <time>2021-09-28T13:46:25Z</time>
      </trkpt>
      <trkpt lat="46.45045" lon="-0.42255">
        <ele>92</ele>
        <time>2021-09-28T13:46:45Z</time>
      </trkpt>
      <trkpt lat="46.45057" lon="-0.42281">
        <ele>92</ele>
        <time>2021-09-28T13:46:56Z</time>
      </trkpt>
      <trkpt lat="46.45085" lon="-0.42306">
        <ele>92</ele>
        <time>2021-09-28T13:47:12Z</time>
      </trkpt>
      <trkpt lat="46.45201" lon="-0.42397">
        <ele>89</ele>
        <time>2021-09-28T13:48:18Z</time>
      </trkpt>
      <trkpt lat="46.45322" lon="-0.42314">
        <ele>91</ele>
        <time>2021-09-28T13:49:25Z</time>
      </trkpt>
      <trkpt lat="46.45411" lon="-0.42538">
        <ele>100</ele>
        <time>2021-09-28T13:50:54Z</time>
      </trkpt>
      <trkpt lat="46.45437" lon="-0.42545">
        <ele>101</ele>
        <time>2021-09-28T13:51:08Z</time>
      </trkpt>
      <trkpt lat="46.4547" lon="-0.42523">
        <ele>102</ele>
        <time>2021-09-28T13:51:26Z</time>
      </trkpt>
      <trkpt lat="46.45483" lon="-0.42497">
        <ele>103</ele>
        <time>2021-09-28T13:51:37Z</time>
      </trkpt>
      <trkpt lat="46.45514" lon="-0.42521">
        <ele>104</ele>
        <time>2021-09-28T13:51:54Z</time>
      </trkpt>
      <trkpt lat="46.45501" lon="-0.42633">
        <ele>101</ele>
        <time>2021-09-28T13:52:33Z</time>
      </trkpt>
      <trkpt lat="46.45493" lon="-0.42694">
        <ele>99</ele>
        <time>2021-09-28T13:52:55Z</time>
      </trkpt>
      <trkpt lat="46.45511" lon="-0.42767">
        <ele>95</ele>
        <time>2021-09-28T13:53:22Z</time>
      </trkpt>
      <trkpt lat="46.45512" lon="-0.42845">
        <ele>89</ele>
        <time>2021-09-28T13:53:49Z</time>
      </trkpt>
      <trkpt lat="46.45536" lon="-0.42943">
        <ele>86</ele>
        <time>2021-09-28T13:54:24Z</time>
      </trkpt>
      <trkpt lat="46.45596" lon="-0.42904">
        <ele>88</ele>
        <time>2021-09-28T13:54:57Z</time>
      </trkpt>
      <trkpt lat="46.45635" lon="-0.42794">
        <ele>94</ele>
        <time>2021-09-28T13:55:40Z</time>
      </trkpt>
      <trkpt lat="46.45674" lon="-0.4274">
        <ele>97</ele>
        <time>2021-09-28T13:56:07Z</time>
      </trkpt>
      <trkpt lat="46.45687" lon="-0.42775">
        <ele>96</ele>
        <time>2021-09-28T13:56:21Z</time>
      </trkpt>
      <trkpt lat="46.45697" lon="-0.42852">
        <ele>96</ele>
        <time>2021-09-28T13:56:48Z</time>
      </trkpt>
      <trkpt lat="46.45673" lon="-0.42943">
        <ele>92</ele>
        <time>2021-09-28T13:57:21Z</time>
      </trkpt>
      <trkpt lat="46.45665" lon="-0.43018">
        <ele>89</ele>
        <time>2021-09-28T13:57:47Z</time>
      </trkpt>
      <trkpt lat="46.45667" lon="-0.43121">
        <ele>84</ele>
        <time>2021-09-28T13:58:23Z</time>
      </trkpt>
      <trkpt lat="46.45684" lon="-0.43181">
        <ele>79</ele>
        <time>2021-09-28T13:58:45Z</time>
      </trkpt>
      <trkpt lat="46.45697" lon="-0.43196">
        <ele>77</ele>
        <time>2021-09-28T13:58:54Z</time>
      </trkpt>
      <trkpt lat="46.45723" lon="-0.432">
        <ele>74</ele>
        <time>2021-09-28T13:59:07Z</time>
      </trkpt>
      <trkpt lat="46.45727" lon="-0.43244">
        <ele>67</ele>
        <time>2021-09-28T13:59:22Z</time>
      </trkpt>
      <trkpt lat="46.45691" lon="-0.43289">
        <ele>64</ele>
        <time>2021-09-28T13:59:46Z</time>
      </trkpt>
      <trkpt lat="46.45679" lon="-0.43435">
        <ele>47</ele>
        <time>2021-09-28T14:00:36Z</time>
      </trkpt>
      <trkpt lat="46.45701" lon="-0.43427">
        <ele>47</ele>
        <time>2021-09-28T14:00:48Z</time>
      </trkpt>
      <trkpt lat="46.45726" lon="-0.43411">
        <ele>48</ele>
        <time>2021-09-28T14:01:01Z</time>
      </trkpt>
      <trkpt lat="46.45754" lon="-0.43344">
        <ele>52</ele>
        <time>2021-09-28T14:01:28Z</time>
      </trkpt>
      <trkpt lat="46.45797" lon="-0.43321">
        <ele>51</ele>
        <time>2021-09-28T14:01:51Z</time>
      </trkpt>
      <trkpt lat="46.4591" lon="-0.43307">
        <ele>49</ele>
        <time>2021-09-28T14:02:48Z</time>
      </trkpt>
      <trkpt lat="46.45975" lon="-0.43286">
        <ele>48</ele>
        <time>2021-09-28T14:03:21Z</time>
      </trkpt>
      <trkpt lat="46.46026" lon="-0.43477">
        <ele>51</ele>
        <time>2021-09-28T14:04:32Z</time>
      </trkpt>
      <trkpt lat="46.4612" lon="-0.43434">
        <ele>53</ele>
        <time>2021-09-28T14:05:21Z</time>
      </trkpt>
      <trkpt lat="46.46167" lon="-0.43463">
        <ele>55</ele>
        <time>2021-09-28T14:05:47Z</time>
      </trkpt>
      <trkpt lat="46.46153" lon="-0.4351">
        <ele>56</ele>
        <time>2021-09-28T14:06:05Z</time>
      </trkpt>
      <trkpt lat="46.4617" lon="-0.43619">
        <ele>57</ele>
        <time>2021-09-28T14:06:43Z</time>
      </trkpt>
      <trkpt lat="46.46212" lon="-0.43729">
        <ele>64</ele>
        <time>2021-09-28T14:07:26Z</time>
      </trkpt>
      <trkpt lat="46.46232" lon="-0.43766">
        <ele>65</ele>
        <time>2021-09-28T14:07:43Z</time>
      </trkpt>
      <trkpt lat="46.4625" lon="-0.43802">
        <ele>66</ele>
        <time>2021-09-28T14:07:58Z</time>
      </trkpt>
      <trkpt lat="46.46246" lon="-0.43828">
        <ele>69</ele>
        <time>2021-09-28T14:08:07Z</time>
      </trkpt>
      <trkpt lat="46.46229" lon="-0.43877">
        <ele>78</ele>
        <time>2021-09-28T14:08:26Z</time>
      </trkpt>
      <trkpt lat="46.46257" lon="-0.43931">
        <ele>80</ele>
        <time>2021-09-28T14:08:49Z</time>
      </trkpt>
      <trkpt lat="46.46321" lon="-0.43933">
        <ele>82</ele>
        <time>2021-09-28T14:09:21Z</time>
      </trkpt>
      <trkpt lat="46.46332" lon="-0.43919">
        <ele>80</ele>
        <time>2021-09-28T14:09:29Z</time>
      </trkpt>
      <trkpt lat="46.46365" lon="-0.43926">
        <ele>83</ele>
        <time>2021-09-28T14:09:45Z</time>
      </trkpt>
      <trkpt lat="46.46385" lon="-0.43921">
        <ele>84</ele>
        <time>2021-09-28T14:09:56Z</time>
      </trkpt>
      <trkpt lat="46.46416" lon="-0.43938">
        <ele>87</ele>
        <time>2021-09-28T14:10:12Z</time>
      </trkpt>
      <trkpt lat="46.46485" lon="-0.43973">
        <ele>90</ele>
        <time>2021-09-28T14:10:49Z</time>
      </trkpt>
      <trkpt lat="46.46562" lon="-0.43982">
        <ele>91</ele>
        <time>2021-09-28T14:11:27Z</time>
      </trkpt>
      <trkpt lat="46.46692" lon="-0.44014">
        <ele>92</ele>
        <time>2021-09-28T14:12:33Z</time>
      </trkpt>
      <trkpt lat="46.4678" lon="-0.44072">
        <ele>94</ele>
        <time>2021-09-28T14:13:22Z</time>
      </trkpt>
      <trkpt lat="46.46852" lon="-0.44143">
        <ele>97</ele>
        <time>2021-09-28T14:14:05Z</time>
      </trkpt>
      <trkpt lat="46.4682" lon="-0.44223">
        <ele>100</ele>
        <time>2021-09-28T14:14:37Z</time>
      </trkpt>
      <trkpt lat="46.46786" lon="-0.44313">
        <ele>98</ele>
        <time>2021-09-28T14:15:13Z</time>
      </trkpt>
      <trkpt lat="46.46962" lon="-0.44407">
        <ele>103</ele>
        <time>2021-09-28T14:16:46Z</time>
      </trkpt>
      <trkpt lat="46.46957" lon="-0.44492">
        <ele>103</ele>
        <time>2021-09-28T14:17:16Z</time>
      </trkpt>
      <trkpt lat="46.46959" lon="-0.44529">
        <ele>104</ele>
        <time>2021-09-28T14:17:29Z</time>
      </trkpt>
      <trkpt lat="46.4698" lon="-0.44611">
        <ele>103</ele>
        <time>2021-09-28T14:17:59Z</time>
      </trkpt>
      <trkpt lat="46.47065" lon="-0.44602">
        <ele>99</ele>
        <time>2021-09-28T14:18:41Z</time>
      </trkpt>
      <trkpt lat="46.47131" lon="-0.44738">
        <ele>92</ele>
        <time>2021-09-28T14:19:39Z</time>
      </trkpt>
      <trkpt lat="46.47135" lon="-0.44737">
        <ele>92</ele>
        <time>2021-09-28T14:19:41Z</time>
      </trkpt>
      <trkpt lat="46.47259" lon="-0.44626">
        <ele>81</ele>
        <time>2021-09-28T14:20:54Z</time>
      </trkpt>
      <trkpt lat="46.47299" lon="-0.44542">
        <ele>78</ele>
        <time>2021-09-28T14:21:29Z</time>
      </trkpt>
      <trkpt lat="46.47349" lon="-0.44416">
        <ele>77</ele>
        <time>2021-09-28T14:22:19Z</time>
      </trkpt>
      <trkpt lat="46.47356" lon="-0.44365">
        <ele>77</ele>
        <time>2021-09-28T14:22:37Z</time>
      </trkpt>
      <trkpt lat="46.47391" lon="-0.44297">
        <ele>79</ele>
        <time>2021-09-28T14:23:06Z</time>
      </trkpt>
      <trkpt lat="46.47573" lon="-0.44396">
        <ele>97</ele>
        <time>2021-09-28T14:24:43Z</time>
      </trkpt>
      <trkpt lat="46.47575" lon="-0.44442">
        <ele>100</ele>
        <time>2021-09-28T14:24:59Z</time>
      </trkpt>
      <trkpt lat="46.47617" lon="-0.4451">
        <ele>104</ele>
        <time>2021-09-28T14:25:31Z</time>
      </trkpt>
      <trkpt lat="46.47652" lon="-0.44602">
        <ele>103</ele>
        <time>2021-09-28T14:26:07Z</time>
      </trkpt>
      <trkpt lat="46.4775" lon="-0.44654">
        <ele>106</ele>
        <time>2021-09-28T14:26:59Z</time>
      </trkpt>
      <trkpt lat="46.47809" lon="-0.44812">
        <ele>107</ele>
        <time>2021-09-28T14:28:01Z</time>
      </trkpt>
      <trkpt lat="46.47839" lon="-0.44941">
        <ele>110</ele>
        <time>2021-09-28T14:28:48Z</time>
      </trkpt>
      <trkpt lat="46.47874" lon="-0.45044">
        <ele>108</ele>
        <time>2021-09-28T14:29:28Z</time>
      </trkpt>
      <trkpt lat="46.47921" lon="-0.45007">
        <ele>112</ele>
        <time>2021-09-28T14:29:54Z</time>
      </trkpt>
      <trkpt lat="46.47946" lon="-0.45004">
        <ele>114</ele>
        <time>2021-09-28T14:30:07Z</time>
      </trkpt>
      <trkpt lat="46.47988" lon="-0.4504">
        <ele>114</ele>
        <time>2021-09-28T14:30:31Z</time>
      </trkpt>
      <trkpt lat="46.48042" lon="-0.45058">
        <ele>115</ele>
        <time>2021-09-28T14:30:59Z</time>
      </trkpt>
      <trkpt lat="46.48076" lon="-0.4505">
        <ele>118</ele>
        <time>2021-09-28T14:31:16Z</time>
      </trkpt>
      <trkpt lat="46.48111" lon="-0.45031">
        <ele>120</ele>
        <time>2021-09-28T14:31:35Z</time>
      </trkpt>
      <trkpt lat="46.48187" lon="-0.44968">
        <ele>121</ele>
        <time>2021-09-28T14:32:19Z</time>
      </trkpt>
      <trkpt lat="46.48257" lon="-0.44935">
        <ele>118</ele>
        <time>2021-09-28T14:32:56Z</time>
      </trkpt>
      <trkpt lat="46.48279" lon="-0.44871">
        <ele>115</ele>
        <time>2021-09-28T14:33:20Z</time>
      </trkpt>
      <trkpt lat="46.48286" lon="-0.44837">
        <ele>114</ele>
        <time>2021-09-28T14:33:33Z</time>
      </trkpt>
      <trkpt lat="46.48322" lon="-0.44814">
        <ele>118</ele>
        <time>2021-09-28T14:33:52Z</time>
      </trkpt>
      <trkpt lat="46.48322" lon="-0.44853">
        <ele>119</ele>
        <time>2021-09-28T14:34:06Z</time>
      </trkpt>
      <trkpt lat="46.4836" lon="-0.44837">
        <ele>121</ele>
        <time>2021-09-28T14:34:26Z</time>
      </trkpt>
      <trkpt lat="46.48397" lon="-0.44778">
        <ele>120</ele>
        <time>2021-09-28T14:34:53Z</time>
      </trkpt>
      <trkpt lat="46.48375" lon="-0.44735">
        <ele>118</ele>
        <time>2021-09-28T14:35:11Z</time>
      </trkpt>
      <trkpt lat="46.48314" lon="-0.4462">
        <ele>105</ele>
        <time>2021-09-28T14:36:01Z</time>
      </trkpt>
      <trkpt lat="46.48313" lon="-0.44536">
        <ele>99</ele>
        <time>2021-09-28T14:36:30Z</time>
      </trkpt>
      <trkpt lat="46.48292" lon="-0.44443">
        <ele>94</ele>
        <time>2021-09-28T14:37:04Z</time>
      </trkpt>
      <trkpt lat="46.48272" lon="-0.4437">
        <ele>93</ele>
        <time>2021-09-28T14:37:31Z</time>
      </trkpt>
      <trkpt lat="46.48273" lon="-0.44106">
        <ele>94</ele>
        <time>2021-09-28T14:39:02Z</time>
      </trkpt>
      <trkpt lat="46.48308" lon="-0.43908">
        <ele>92</ele>
        <time>2021-09-28T14:40:13Z</time>
      </trkpt>
      <trkpt lat="46.48281" lon="-0.43866">
        <ele>95</ele>
        <time>2021-09-28T14:40:32Z</time>
      </trkpt>
      <trkpt lat="46.48246" lon="-0.43765">
        <ele>104</ele>
        <time>2021-09-28T14:41:11Z</time>
      </trkpt>
      <trkpt lat="46.4827" lon="-0.4375">
        <ele>105</ele>
        <time>2021-09-28T14:41:24Z</time>
      </trkpt>
      <trkpt lat="46.48314" lon="-0.43737">
        <ele>106</ele>
        <time>2021-09-28T14:41:47Z</time>
      </trkpt>
      <trkpt lat="46.48362" lon="-0.43725">
        <ele>108</ele>
        <time>2021-09-28T14:42:11Z</time>
      </trkpt>
      <trkpt lat="46.48445" lon="-0.43729">
        <ele>110</ele>
        <time>2021-09-28T14:42:53Z</time>
      </trkpt>
      <trkpt lat="46.48466" lon="-0.43697">
        <ele>113</ele>
        <time>2021-09-28T14:43:08Z</time>
      </trkpt>
      <trkpt lat="46.48495" lon="-0.43658">
        <ele>116</ele>
        <time>2021-09-28T14:43:28Z</time>
      </trkpt>
      <trkpt lat="46.48464" lon="-0.43531">
        <ele>119</ele>
        <time>2021-09-28T14:44:14Z</time>
      </trkpt>
      <trkpt lat="46.48446" lon="-0.43405">
        <ele>117</ele>
        <time>2021-09-28T14:44:59Z</time>
      </trkpt>
      <trkpt lat="46.48457" lon="-0.43369">
        <ele>115</ele>
        <time>2021-09-28T14:45:12Z</time>
      </trkpt>
      <trkpt lat="46.48505" lon="-0.43373">
        <ele>114.8</ele>
      </trkpt>
      <trkpt lat="46.48522" lon="-0.43369">
        <ele>114.6</ele>
      </trkpt>
      <trkpt lat="46.48534" lon="-0.43366">
        <ele>114.5</ele>
      </trkpt>
      <trkpt lat="46.48546" lon="-0.4336">
        <ele>114.6</ele>
      </trkpt>
      <trkpt lat="46.48556" lon="-0.43355">
        <ele>114.6</ele>
      </trkpt>
      <trkpt lat="46.48565" lon="-0.4335">
        <ele>114.4</ele>
      </trkpt>
      <trkpt lat="46.48577" lon="-0.43339">
        <ele>114</ele>
      </trkpt>
      <trkpt lat="46.48588" lon="-0.43327">
        <ele>113.8</ele>
      </trkpt>
      <trkpt lat="46.486" lon="-0.43311">
        <ele>113.7</ele>
      </trkpt>
      <trkpt lat="46.48615" lon="-0.43306">
        <ele>114.1</ele>
      </trkpt>
      <trkpt lat="46.48626" lon="-0.43303">
        <ele>114.4</ele>
      </trkpt>
      <trkpt lat="46.48636" lon="-0.43301">
        <ele>114.7</ele>
      </trkpt>
      <trkpt lat="46.48649" lon="-0.43298">
        <ele>114.8</ele>
      </trkpt>
      <trkpt lat="46.48659" lon="-0.43299">
        <ele>114.9</ele>
      </trkpt>
      <trkpt lat="46.48671" lon="-0.43302">
        <ele>115.2</ele>
      </trkpt>
      <trkpt lat="46.48686" lon="-0.43306">
        <ele>115.7</ele>
      </trkpt>
      <trkpt lat="46.48698" lon="-0.43308">
        <ele>116</ele>
      </trkpt>
      <trkpt lat="46.48709" lon="-0.43309">
        <ele>116</ele>
      </trkpt>
      <trkpt lat="46.48725" lon="-0.43304">
        <ele>116.1</ele>
      </trkpt>
      <trkpt lat="46.48742" lon="-0.43297">
        <ele>116.4</ele>
      </trkpt>
      <trkpt lat="46.48765" lon="-0.43286">
        <ele>116.8</ele>
      </trkpt>
      <trkpt lat="46.48787" lon="-0.43273">
        <ele>117.3</ele>
      </trkpt>
      <trkpt lat="46.4881" lon="-0.43262">
        <ele>118.1</ele>
      </trkpt>
      <trkpt lat="46.48825" lon="-0.43256">
        <ele>118.7</ele>
      </trkpt>
      <trkpt lat="46.48846" lon="-0.43249">
        <ele>119.5</ele>
      </trkpt>
      <trkpt lat="46.48865" lon="-0.43244">
        <ele>120.1</ele>
      </trkpt>
      <trkpt lat="46.48882" lon="-0.43241">
        <ele>120.5</ele>
      </trkpt>
      <trkpt lat="46.48905" lon="-0.4324">
        <ele>120.8</ele>
      </trkpt>
      <trkpt lat="46.48932" lon="-0.4324">
        <ele>121.2</ele>
      </trkpt>
      <trkpt lat="46.4896" lon="-0.4324">
        <ele>121.4</ele>
      </trkpt>
      <trkpt lat="46.48981" lon="-0.43237">
        <ele>122</ele>
      </trkpt>
      <trkpt lat="46.49" lon="-0.43234">
        <ele>123</ele>
      </trkpt>
      <trkpt lat="46.49023" lon="-0.43233">
        <ele>123.8</ele>
      </trkpt>
      <trkpt lat="46.49039" lon="-0.43232">
        <ele>124.4</ele>
      </trkpt>
      <trkpt lat="46.49052" lon="-0.4323">
        <ele>124.9</ele>
      </trkpt>
      <trkpt lat="46.4907" lon="-0.43225">
        <ele>125.5</ele>
      </trkpt>
      <trkpt lat="46.49098" lon="-0.43216">
        <ele>126.5</ele>
      </trkpt>
      <trkpt lat="46.49131" lon="-0.43206">
        <ele>127.7</ele>
      </trkpt>
      <trkpt lat="46.4915" lon="-0.432">
        <ele>128.4</ele>
      </trkpt>
      <trkpt lat="46.49164" lon="-0.432">
        <ele>128.9</ele>
      </trkpt>
      <trkpt lat="46.49181" lon="-0.43204">
        <ele>129.2</ele>
      </trkpt>
      <trkpt lat="46.49193" lon="-0.43207">
        <ele>129.4</ele>
      </trkpt>
      <trkpt lat="46.49207" lon="-0.43209">
        <ele>129.7</ele>
      </trkpt>
      <trkpt lat="46.4922" lon="-0.4321">
        <ele>130</ele>
      </trkpt>
      <trkpt lat="46.49235" lon="-0.43213">
        <ele>130</ele>
      </trkpt>
      <trkpt lat="46.4925" lon="-0.4322">
        <ele>130</ele>
      </trkpt>
      <trkpt lat="46.49275" lon="-0.43233">
        <ele>130</ele>
      </trkpt>
      <trkpt lat="46.49301" lon="-0.43245">
        <ele>129.8</ele>
      </trkpt>
      <trkpt lat="46.49322" lon="-0.43257">
        <ele>129.3</ele>
      </trkpt>
      <trkpt lat="46.49339" lon="-0.43265">
        <ele>129.1</ele>
      </trkpt>
      <trkpt lat="46.49361" lon="-0.43271">
        <ele>129.7</ele>
      </trkpt>
      <trkpt lat="46.49379" lon="-0.43277">
        <ele>130</ele>
      </trkpt>
      <trkpt lat="46.49399" lon="-0.43284">
        <ele>130</ele>
      </trkpt>
      <trkpt lat="46.49415" lon="-0.43289">
        <ele>130</ele>
      </trkpt>
      <trkpt lat="46.49429" lon="-0.43292">
        <ele>130.2</ele>
      </trkpt>
      <trkpt lat="46.49443" lon="-0.43293">
        <ele>130.5</ele>
      </trkpt>
      <trkpt lat="46.4946" lon="-0.43292">
        <ele>130.8</ele>
      </trkpt>
      <trkpt lat="46.49487" lon="-0.4329">
        <ele>130.5</ele>
      </trkpt>
      <trkpt lat="46.49506" lon="-0.43287">
        <ele>129.8</ele>
      </trkpt>
      <trkpt lat="46.49523" lon="-0.43285">
        <ele>129.2</ele>
      </trkpt>
      <trkpt lat="46.49533" lon="-0.43283">
        <ele>128.8</ele>
      </trkpt>
      <trkpt lat="46.49544" lon="-0.43285">
        <ele>128.4</ele>
      </trkpt>
      <trkpt lat="46.4956" lon="-0.4329">
        <ele>127.9</ele>
      </trkpt>
      <trkpt lat="46.49574" lon="-0.43294">
        <ele>127.7</ele>
      </trkpt>
      <trkpt lat="46.49589" lon="-0.43295">
        <ele>127.6</ele>
      </trkpt>
      <trkpt lat="46.49606" lon="-0.43296">
        <ele>127.7</ele>
      </trkpt>
      <trkpt lat="46.49628" lon="-0.43299">
        <ele>128.4</ele>
      </trkpt>
      <trkpt lat="46.49653" lon="-0.43304">
        <ele>129</ele>
      </trkpt>
      <trkpt lat="46.49682" lon="-0.43307">
        <ele>129.6</ele>
      </trkpt>
      <trkpt lat="46.49723" lon="-0.43316">
        <ele>131</ele>
      </trkpt>
      <trkpt lat="46.49752" lon="-0.43322">
        <ele>131.6</ele>
      </trkpt>
      <trkpt lat="46.49764" lon="-0.43326">
        <ele>131.9</ele>
      </trkpt>
      <trkpt lat="46.49767" lon="-0.43327">
        <ele>131.9</ele>
      </trkpt>
      <trkpt lat="46.49774" lon="-0.43328">
        <ele>132</ele>
      </trkpt>
      <trkpt lat="46.49779" lon="-0.43329">
        <ele>132</ele>
      </trkpt>
      <trkpt lat="46.49798" lon="-0.4331">
        <ele>132.7</ele>
      </trkpt>
      <trkpt lat="46.4983" lon="-0.43275">
        <ele>132.8</ele>
      </trkpt>
      <trkpt lat="46.49855" lon="-0.43247">
        <ele>132.8</ele>
      </trkpt>
      <trkpt lat="46.4985" lon="-0.43234">
        <ele>132.6</ele>
      </trkpt>
      <trkpt lat="46.49841" lon="-0.43214">
        <ele>132</ele>
      </trkpt>
      <trkpt lat="46.49827" lon="-0.43185">
        <ele>131.3</ele>
      </trkpt>
      <trkpt lat="46.49808" lon="-0.43155">
        <ele>130.7</ele>
      </trkpt>
      <trkpt lat="46.49795" lon="-0.43131">
        <ele>130.2</ele>
      </trkpt>
      <trkpt lat="46.49784" lon="-0.43112">
        <ele>130.2</ele>
      </trkpt>
      <trkpt lat="46.49776" lon="-0.43094">
        <ele>129.4</ele>
      </trkpt>
      <trkpt lat="46.49768" lon="-0.4307">
        <ele>129</ele>
      </trkpt>
      <trkpt lat="46.49754" lon="-0.43037">
        <ele>129</ele>
      </trkpt>
      <trkpt lat="46.49741" lon="-0.42997">
        <ele>128.7</ele>
      </trkpt>
      <trkpt lat="46.49735" lon="-0.42969">
        <ele>129</ele>
      </trkpt>
      <trkpt lat="46.49726" lon="-0.42935">
        <ele>129</ele>
      </trkpt>
      <trkpt lat="46.49719" lon="-0.42907">
        <ele>129</ele>
      </trkpt>
      <trkpt lat="46.49715" lon="-0.4288">
        <ele>129</ele>
      </trkpt>
      <trkpt lat="46.49719" lon="-0.42861">
        <ele>129</ele>
      </trkpt>
      <trkpt lat="46.49721" lon="-0.42852">
        <ele>129</ele>
      </trkpt>
      <trkpt lat="46.49724" lon="-0.42834">
        <ele>129</ele>
      </trkpt>
      <trkpt lat="46.49725" lon="-0.42821">
        <ele>129</ele>
      </trkpt>
      <trkpt lat="46.49724" lon="-0.42808">
        <ele>129</ele>
      </trkpt>
      <trkpt lat="46.4972" lon="-0.42791">
        <ele>129</ele>
      </trkpt>
      <trkpt lat="46.49713" lon="-0.42766">
        <ele>128.6</ele>
      </trkpt>
      <trkpt lat="46.49704" lon="-0.42743">
        <ele>127.8</ele>
      </trkpt>
      <trkpt lat="46.49698" lon="-0.42727">
        <ele>127.2</ele>
      </trkpt>
      <trkpt lat="46.49691" lon="-0.4271">
        <ele>126.6</ele>
      </trkpt>
      <trkpt lat="46.49686" lon="-0.42694">
        <ele>126</ele>
      </trkpt>
      <trkpt lat="46.49679" lon="-0.42671">
        <ele>125.6</ele>
      </trkpt>
      <trkpt lat="46.49669" lon="-0.42644">
        <ele>125.8</ele>
      </trkpt>
      <trkpt lat="46.49655" lon="-0.42608">
        <ele>125.4</ele>
      </trkpt>
      <trkpt lat="46.49642" lon="-0.42577">
        <ele>125.7</ele>
      </trkpt>
      <trkpt lat="46.49634" lon="-0.42555">
        <ele>125.1</ele>
      </trkpt>
      <trkpt lat="46.4963" lon="-0.42538">
        <ele>124.7</ele>
      </trkpt>
      <trkpt lat="46.49625" lon="-0.42519">
        <ele>124.2</ele>
      </trkpt>
      <trkpt lat="46.49623" lon="-0.42506">
        <ele>123.8</ele>
      </trkpt>
      <trkpt lat="46.49624" lon="-0.42494">
        <ele>123.2</ele>
      </trkpt>
      <trkpt lat="46.49626" lon="-0.42479">
        <ele>122.3</ele>
      </trkpt>
      <trkpt lat="46.4963" lon="-0.42462">
        <ele>121.3</ele>
      </trkpt>
      <trkpt lat="46.49634" lon="-0.42442">
        <ele>120.4</ele>
      </trkpt>
      <trkpt lat="46.49637" lon="-0.42424">
        <ele>120.1</ele>
      </trkpt>
      <trkpt lat="46.4964" lon="-0.42404">
        <ele>119.5</ele>
      </trkpt>
      <trkpt lat="46.49643" lon="-0.42381">
        <ele>119</ele>
      </trkpt>
      <trkpt lat="46.49645" lon="-0.42353">
        <ele>118.6</ele>
      </trkpt>
      <trkpt lat="46.49647" lon="-0.42325">
        <ele>117.7</ele>
      </trkpt>
      <trkpt lat="46.49652" lon="-0.42299">
        <ele>116.7</ele>
      </trkpt>
      <trkpt lat="46.49655" lon="-0.42275">
        <ele>115.9</ele>
      </trkpt>
      <trkpt lat="46.49659" lon="-0.42251">
        <ele>115.5</ele>
      </trkpt>
      <trkpt lat="46.49663" lon="-0.42233">
        <ele>115.8</ele>
      </trkpt>
      <trkpt lat="46.49669" lon="-0.42216">
        <ele>116.4</ele>
      </trkpt>
      <trkpt lat="46.4968" lon="-0.42195">
        <ele>117.9</ele>
      </trkpt>
      <trkpt lat="46.49688" lon="-0.42181">
        <ele>118.3</ele>
      </trkpt>
      <trkpt lat="46.49698" lon="-0.42165">
        <ele>118.1</ele>
      </trkpt>
      <trkpt lat="46.49708" lon="-0.42151">
        <ele>117.9</ele>
      </trkpt>
      <trkpt lat="46.49716" lon="-0.42137">
        <ele>117.2</ele>
      </trkpt>
      <trkpt lat="46.49719" lon="-0.42129">
        <ele>117.1</ele>
      </trkpt>
      <trkpt lat="46.49721" lon="-0.42125">
        <ele>117</ele>
      </trkpt>
      <trkpt lat="46.49724" lon="-0.42113">
        <ele>117</ele>
      </trkpt>
      <trkpt lat="46.49726" lon="-0.421">
        <ele>116.2</ele>
      </trkpt>
      <trkpt lat="46.49728" lon="-0.42086">
        <ele>115.2</ele>
      </trkpt>
      <trkpt lat="46.49729" lon="-0.4207">
        <ele>114.4</ele>
      </trkpt>
      <trkpt lat="46.49728" lon="-0.42051">
        <ele>113.5</ele>
      </trkpt>
      <trkpt lat="46.49727" lon="-0.4203">
        <ele>112.1</ele>
      </trkpt>
      <trkpt lat="46.49726" lon="-0.4201">
        <ele>111.9</ele>
      </trkpt>
      <trkpt lat="46.49723" lon="-0.41989">
        <ele>111.6</ele>
      </trkpt>
      <trkpt lat="46.49719" lon="-0.41965">
        <ele>110.7</ele>
      </trkpt>
      <trkpt lat="46.49715" lon="-0.41941">
        <ele>110.6</ele>
      </trkpt>
      <trkpt lat="46.4971" lon="-0.41921">
        <ele>110.9</ele>
      </trkpt>
      <trkpt lat="46.49705" lon="-0.41905">
        <ele>112.1</ele>
      </trkpt>
      <trkpt lat="46.49698" lon="-0.41882">
        <ele>114.2</ele>
      </trkpt>
      <trkpt lat="46.49691" lon="-0.41862">
        <ele>116.6</ele>
      </trkpt>
      <trkpt lat="46.49682" lon="-0.41842">
        <ele>117.9</ele>
      </trkpt>
      <trkpt lat="46.49676" lon="-0.41822">
        <ele>118.7</ele>
      </trkpt>
      <trkpt lat="46.49667" lon="-0.41798">
        <ele>119.3</ele>
      </trkpt>
      <trkpt lat="46.49654" lon="-0.41779">
        <ele>119.1</ele>
      </trkpt>
      <trkpt lat="46.49639" lon="-0.41757">
        <ele>118</ele>
      </trkpt>
      <trkpt lat="46.4963" lon="-0.41742">
        <ele>117.2</ele>
      </trkpt>
      <trkpt lat="46.49618" lon="-0.41726">
        <ele>115.8</ele>
      </trkpt>
      <trkpt lat="46.49604" lon="-0.4171">
        <ele>113.9</ele>
      </trkpt>
      <trkpt lat="46.49598" lon="-0.41702">
        <ele>113</ele>
      </trkpt>
      <trkpt lat="46.49596" lon="-0.41699">
        <ele>112.6</ele>
      </trkpt>
      <trkpt lat="46.49589" lon="-0.41687">
        <ele>111.1</ele>
      </trkpt>
      <trkpt lat="46.49583" lon="-0.41675">
        <ele>109.6</ele>
      </trkpt>
      <trkpt lat="46.49577" lon="-0.41658">
        <ele>107.7</ele>
      </trkpt>
      <trkpt lat="46.4957" lon="-0.41635">
        <ele>105.3</ele>
      </trkpt>
      <trkpt lat="46.49563" lon="-0.41617">
        <ele>103.7</ele>
      </trkpt>
      <trkpt lat="46.49552" lon="-0.41592">
        <ele>102.3</ele>
      </trkpt>
      <trkpt lat="46.49544" lon="-0.41565">
        <ele>102</ele>
      </trkpt>
      <trkpt lat="46.49537" lon="-0.41541">
        <ele>102</ele>
      </trkpt>
      <trkpt lat="46.49536" lon="-0.41521">
        <ele>102.1</ele>
      </trkpt>
      <trkpt lat="46.49537" lon="-0.41511">
        <ele>102.2</ele>
      </trkpt>
      <trkpt lat="46.49542" lon="-0.41497">
        <ele>102.5</ele>
      </trkpt>
      <trkpt lat="46.49559" lon="-0.41468">
        <ele>103</ele>
      </trkpt>
      <trkpt lat="46.49573" lon="-0.41443">
        <ele>102.6</ele>
      </trkpt>
      <trkpt lat="46.49575" lon="-0.41429">
        <ele>102.7</ele>
      </trkpt>
      <trkpt lat="46.49574" lon="-0.41393">
        <ele>102.1</ele>
      </trkpt>
      <trkpt lat="46.49574" lon="-0.41383">
        <ele>102</ele>
      </trkpt>
      <trkpt lat="46.49572" lon="-0.41367">
        <ele>102</ele>
      </trkpt>
      <trkpt lat="46.4957" lon="-0.41353">
        <ele>102</ele>
      </trkpt>
      <trkpt lat="46.49562" lon="-0.41327">
        <ele>102</ele>
      </trkpt>
      <trkpt lat="46.49548" lon="-0.41297">
        <ele>102.2</ele>
      </trkpt>
      <trkpt lat="46.49525" lon="-0.41244">
        <ele>102.9</ele>
      </trkpt>
      <trkpt lat="46.49521" lon="-0.41232">
        <ele>102.7</ele>
      </trkpt>
      <trkpt lat="46.49504" lon="-0.41226">
        <ele>102.1</ele>
      </trkpt>
      <trkpt lat="46.49495" lon="-0.41223">
        <ele>102</ele>
      </trkpt>
      <trkpt lat="46.49482" lon="-0.41216">
        <ele>102</ele>
      </trkpt>
      <trkpt lat="46.49474" lon="-0.4121">
        <ele>102</ele>
      </trkpt>
      <trkpt lat="46.49459" lon="-0.41203">
        <ele>101.8</ele>
      </trkpt>
      <trkpt lat="46.49454" lon="-0.41202">
        <ele>101.8</ele>
      </trkpt>
      <trkpt lat="46.49439" lon="-0.412">
        <ele>101.8</ele>
      </trkpt>
      <trkpt lat="46.49425" lon="-0.41199">
        <ele>101.8</ele>
      </trkpt>
      <trkpt lat="46.49405" lon="-0.412">
        <ele>101.8</ele>
      </trkpt>
      <trkpt lat="46.49385" lon="-0.41198">
        <ele>102</ele>
      </trkpt>
      <trkpt lat="46.49375" lon="-0.41197">
        <ele>102.4</ele>
      </trkpt>
      <trkpt lat="46.49361" lon="-0.41193">
        <ele>103</ele>
      </trkpt>
      <trkpt lat="46.49347" lon="-0.41187">
        <ele>103.5</ele>
      </trkpt>
      <trkpt lat="46.49339" lon="-0.41185">
        <ele>103.8</ele>
      </trkpt>
      <trkpt lat="46.49331" lon="-0.41181">
        <ele>104.3</ele>
      </trkpt>
      <trkpt lat="46.49315" lon="-0.41196">
        <ele>105.9</ele>
      </trkpt>
      <trkpt lat="46.49303" lon="-0.4121">
        <ele>107.5</ele>
      </trkpt>
      <trkpt lat="46.4929" lon="-0.41223">
        <ele>109.7</ele>
      </trkpt>
      <trkpt lat="46.49277" lon="-0.41238">
        <ele>111</ele>
      </trkpt>
      <trkpt lat="46.49264" lon="-0.41246">
        <ele>112.6</ele>
      </trkpt>
      <trkpt lat="46.49256" lon="-0.41251">
        <ele>113.9</ele>
      </trkpt>
      <trkpt lat="46.49237" lon="-0.41252">
        <ele>116.3</ele>
      </trkpt>
      <trkpt lat="46.49216" lon="-0.4125">
        <ele>118.5</ele>
      </trkpt>
      <trkpt lat="46.49198" lon="-0.41242">
        <ele>120.3</ele>
      </trkpt>
      <trkpt lat="46.49178" lon="-0.41237">
        <ele>121.8</ele>
      </trkpt>
      <trkpt lat="46.49153" lon="-0.41232">
        <ele>122.6</ele>
      </trkpt>
      <trkpt lat="46.49142" lon="-0.41231">
        <ele>122.7</ele>
      </trkpt>
      <trkpt lat="46.49131" lon="-0.41229">
        <ele>122.3</ele>
      </trkpt>
      <trkpt lat="46.49115" lon="-0.41225">
        <ele>121.3</ele>
      </trkpt>
      <trkpt lat="46.49101" lon="-0.41219">
        <ele>120.3</ele>
      </trkpt>
      <trkpt lat="46.49089" lon="-0.4121">
        <ele>119.4</ele>
      </trkpt>
      <trkpt lat="46.49079" lon="-0.41203">
        <ele>118.7</ele>
      </trkpt>
      <trkpt lat="46.49069" lon="-0.41198">
        <ele>118.1</ele>
      </trkpt>
      <trkpt lat="46.49053" lon="-0.41188">
        <ele>116.9</ele>
      </trkpt>
      <trkpt lat="46.49031" lon="-0.41176">
        <ele>116.1</ele>
      </trkpt>
      <trkpt lat="46.48988" lon="-0.41153">
        <ele>115.1</ele>
      </trkpt>
      <trkpt lat="46.48947" lon="-0.41128">
        <ele>114.1</ele>
      </trkpt>
      <trkpt lat="46.48919" lon="-0.41115">
        <ele>111.4</ele>
      </trkpt>
      <trkpt lat="46.48891" lon="-0.41102">
        <ele>110.1</ele>
      </trkpt>
      <trkpt lat="46.48879" lon="-0.41096">
        <ele>109.4</ele>
      </trkpt>
      <trkpt lat="46.48859" lon="-0.41086">
        <ele>108</ele>
      </trkpt>
      <trkpt lat="46.48833" lon="-0.41076">
        <ele>105.7</ele>
      </trkpt>
      <trkpt lat="46.4881" lon="-0.41065">
        <ele>103.4</ele>
      </trkpt>
      <trkpt lat="46.48772" lon="-0.41047">
        <ele>101.8</ele>
      </trkpt>
      <trkpt lat="46.48764" lon="-0.41044">
        <ele>102</ele>
      </trkpt>
      <trkpt lat="46.48758" lon="-0.41045">
        <ele>102.1</ele>
      </trkpt>
      <trkpt lat="46.48735" lon="-0.41049">
        <ele>103.7</ele>
      </trkpt>
      <trkpt lat="46.48723" lon="-0.41053">
        <ele>105</ele>
      </trkpt>
      <trkpt lat="46.48707" lon="-0.41056">
        <ele>106.1</ele>
      </trkpt>
      <trkpt lat="46.48696" lon="-0.41056">
        <ele>106.9</ele>
      </trkpt>
      <trkpt lat="46.48683" lon="-0.41057">
        <ele>107.9</ele>
      </trkpt>
      <trkpt lat="46.48671" lon="-0.41057">
        <ele>108.8</ele>
      </trkpt>
      <trkpt lat="46.48657" lon="-0.41056">
        <ele>109</ele>
      </trkpt>
      <trkpt lat="46.48647" lon="-0.41056">
        <ele>109</ele>
      </trkpt>
      <trkpt lat="46.48632" lon="-0.41057">
        <ele>108.8</ele>
      </trkpt>
      <trkpt lat="46.48617" lon="-0.41058">
        <ele>108.3</ele>
      </trkpt>
      <trkpt lat="46.486" lon="-0.41054">
        <ele>107.5</ele>
      </trkpt>
      <trkpt lat="46.48574" lon="-0.41046">
        <ele>106.3</ele>
      </trkpt>
      <trkpt lat="46.48563" lon="-0.41047">
        <ele>105.9</ele>
      </trkpt>
      <trkpt lat="46.48554" lon="-0.41046">
        <ele>105.5</ele>
      </trkpt>
      <trkpt lat="46.48535" lon="-0.41027">
        <ele>102.7</ele>
      </trkpt>
      <trkpt lat="46.48506" lon="-0.41007">
        <ele>99.1</ele>
      </trkpt>
      <trkpt lat="46.485" lon="-0.41001">
        <ele>98.1</ele>
      </trkpt>
      <trkpt lat="46.48483" lon="-0.40998">
        <ele>97.2</ele>
      </trkpt>
      <trkpt lat="46.48449" lon="-0.40986">
        <ele>95.5</ele>
      </trkpt>
      <trkpt lat="46.48436" lon="-0.4098">
        <ele>94.4</ele>
      </trkpt>
      <trkpt lat="46.48431" lon="-0.40974">
        <ele>94</ele>
      </trkpt>
      <trkpt lat="46.48388" lon="-0.40856">
        <ele>101.1</ele>
      </trkpt>
      <trkpt lat="46.48381" lon="-0.4086">
        <ele>100.5</ele>
      </trkpt>
      <trkpt lat="46.4836" lon="-0.40804">
        <ele>104</ele>
      </trkpt>
      <trkpt lat="46.48342" lon="-0.40782">
        <ele>104.8</ele>
      </trkpt>
      <trkpt lat="46.48337" lon="-0.40772">
        <ele>105.2</ele>
      </trkpt>
      <trkpt lat="46.48343" lon="-0.40753">
        <ele>105.9</ele>
      </trkpt>
      <trkpt lat="46.48303" lon="-0.4067">
        <ele>106.8</ele>
      </trkpt>
      <trkpt lat="46.48295" lon="-0.40645">
        <ele>105.4</ele>
      </trkpt>
      <trkpt lat="46.48289" lon="-0.40629">
        <ele>104.6</ele>
      </trkpt>
      <trkpt lat="46.48285" lon="-0.40626">
        <ele>104.2</ele>
      </trkpt>
      <trkpt lat="46.4828" lon="-0.40612">
        <ele>103.3</ele>
      </trkpt>
      <trkpt lat="46.48279" lon="-0.406">
        <ele>102.7</ele>
      </trkpt>
      <trkpt lat="46.48281" lon="-0.40587">
        <ele>102.5</ele>
      </trkpt>
      <trkpt lat="46.48286" lon="-0.40575">
        <ele>102.6</ele>
      </trkpt>
      <trkpt lat="46.48291" lon="-0.40559">
        <ele>102.5</ele>
      </trkpt>
      <trkpt lat="46.48293" lon="-0.40545">
        <ele>102.2</ele>
      </trkpt>
      <trkpt lat="46.48297" lon="-0.40495">
        <ele>100.5</ele>
      </trkpt>
      <trkpt lat="46.48297" lon="-0.4048">
        <ele>99.6</ele>
      </trkpt>
      <trkpt lat="46.48327" lon="-0.40444">
        <ele>101.3</ele>
      </trkpt>
      <trkpt lat="46.48341" lon="-0.40421">
        <ele>100.8</ele>
      </trkpt>
      <trkpt lat="46.48352" lon="-0.40407">
        <ele>101</ele>
      </trkpt>
      <trkpt lat="46.48362" lon="-0.40399">
        <ele>101.4</ele>
      </trkpt>
      <trkpt lat="46.48366" lon="-0.40397">
        <ele>101.7</ele>
      </trkpt>
      <trkpt lat="46.48375" lon="-0.40392">
        <ele>102.1</ele>
      </trkpt>
      <trkpt lat="46.48383" lon="-0.40385">
        <ele>102.3</ele>
      </trkpt>
      <trkpt lat="46.484" lon="-0.40371">
        <ele>102.1</ele>
      </trkpt>
      <trkpt lat="46.48408" lon="-0.40366">
        <ele>102</ele>
      </trkpt>
      <trkpt lat="46.48418" lon="-0.40356">
        <ele>101.6</ele>
      </trkpt>
      <trkpt lat="46.48426" lon="-0.40348">
        <ele>101.4</ele>
      </trkpt>
      <trkpt lat="46.48437" lon="-0.40339">
        <ele>101.6</ele>
      </trkpt>
      <trkpt lat="46.48453" lon="-0.40324">
        <ele>101.7</ele>
      </trkpt>
      <trkpt lat="46.4845" lon="-0.40316">
        <ele>100.6</ele>
      </trkpt>
      <trkpt lat="46.48447" lon="-0.40305">
        <ele>99.3</ele>
      </trkpt>
      <trkpt lat="46.48444" lon="-0.40291">
        <ele>97.8</ele>
      </trkpt>
      <trkpt lat="46.48441" lon="-0.40285">
        <ele>96.8</ele>
      </trkpt>
      <trkpt lat="46.48436" lon="-0.40282">
        <ele>95.7</ele>
      </trkpt>
      <trkpt lat="46.48428" lon="-0.4028">
        <ele>93.7</ele>
      </trkpt>
      <trkpt lat="46.48409" lon="-0.40278">
        <ele>90.2</ele>
      </trkpt>
      <trkpt lat="46.48397" lon="-0.40274">
        <ele>88.1</ele>
      </trkpt>
      <trkpt lat="46.48389" lon="-0.40271">
        <ele>86.8</ele>
      </trkpt>
      <trkpt lat="46.48377" lon="-0.40269">
        <ele>86.6</ele>
      </trkpt>
      <trkpt lat="46.48368" lon="-0.40268">
        <ele>86.6</ele>
      </trkpt>
      <trkpt lat="46.48344" lon="-0.40267">
        <ele>85.6</ele>
      </trkpt>
      <trkpt lat="46.48328" lon="-0.40271">
        <ele>85.2</ele>
      </trkpt>
      <trkpt lat="46.4832" lon="-0.40276">
        <ele>85.3</ele>
      </trkpt>
      <trkpt lat="46.48308" lon="-0.40293">
        <ele>86.6</ele>
      </trkpt>
      <trkpt lat="46.48301" lon="-0.40304">
        <ele>87.4</ele>
      </trkpt>
      <trkpt lat="46.48295" lon="-0.40306">
        <ele>86.9</ele>
      </trkpt>
      <trkpt lat="46.48286" lon="-0.40296">
        <ele>84.7</ele>
      </trkpt>
      <trkpt lat="46.48279" lon="-0.40286">
        <ele>83.1</ele>
      </trkpt>
      <trkpt lat="46.48275" lon="-0.40278">
        <ele>81.8</ele>
      </trkpt>
      <trkpt lat="46.48271" lon="-0.40266">
        <ele>80.4</ele>
      </trkpt>
      <trkpt lat="46.48265" lon="-0.40244">
        <ele>78.1</ele>
      </trkpt>
      <trkpt lat="46.48257" lon="-0.40216">
        <ele>76</ele>
      </trkpt>
      <trkpt lat="46.4825" lon="-0.40191">
        <ele>75</ele>
      </trkpt>
      <trkpt lat="46.48246" lon="-0.40185">
        <ele>74.9</ele>
      </trkpt>
      <trkpt lat="46.48236" lon="-0.40175">
        <ele>74.5</ele>
      </trkpt>
      <trkpt lat="46.48206" lon="-0.4015">
        <ele>73.9</ele>
      </trkpt>
      <trkpt lat="46.48174" lon="-0.40123">
        <ele>73.2</ele>
      </trkpt>
      <trkpt lat="46.48146" lon="-0.40099">
        <ele>72.7</ele>
      </trkpt>
      <trkpt lat="46.48121" lon="-0.40075">
        <ele>72.4</ele>
      </trkpt>
      <trkpt lat="46.48102" lon="-0.40054">
        <ele>72</ele>
      </trkpt>
      <trkpt lat="46.48099" lon="-0.40051">
        <ele>71.9</ele>
      </trkpt>
      <trkpt lat="46.48089" lon="-0.40042">
        <ele>71.5</ele>
      </trkpt>
      <trkpt lat="46.48073" lon="-0.40026">
        <ele>71</ele>
      </trkpt>
      <trkpt lat="46.48056" lon="-0.40005">
        <ele>71</ele>
      </trkpt>
      <trkpt lat="46.48046" lon="-0.39992">
        <ele>71</ele>
      </trkpt>
      <trkpt lat="46.48024" lon="-0.39971">
        <ele>70.8</ele>
      </trkpt>
      <trkpt lat="46.48007" lon="-0.3996">
        <ele>70.5</ele>
      </trkpt>
      <trkpt lat="46.47988" lon="-0.39949">
        <ele>70.9</ele>
      </trkpt>
      <trkpt lat="46.47951" lon="-0.39928">
        <ele>72.5</ele>
      </trkpt>
      <trkpt lat="46.47946" lon="-0.39915">
        <ele>72.9</ele>
      </trkpt>
      <trkpt lat="46.47937" lon="-0.39883">
        <ele>73.8</ele>
      </trkpt>
      <trkpt lat="46.47925" lon="-0.39854">
        <ele>76.3</ele>
      </trkpt>
      <trkpt lat="46.47916" lon="-0.39826">
        <ele>79.2</ele>
      </trkpt>
      <trkpt lat="46.47911" lon="-0.39805">
        <ele>80.8</ele>
      </trkpt>
      <trkpt lat="46.47909" lon="-0.39797">
        <ele>82</ele>
      </trkpt>
      <trkpt lat="46.47904" lon="-0.39783">
        <ele>84.4</ele>
      </trkpt>
      <trkpt lat="46.47889" lon="-0.39754">
        <ele>89.7</ele>
      </trkpt>
      <trkpt lat="46.4788" lon="-0.39741">
        <ele>91.9</ele>
      </trkpt>
      <trkpt lat="46.47861" lon="-0.39719">
        <ele>95.9</ele>
      </trkpt>
      <trkpt lat="46.47853" lon="-0.39702">
        <ele>96.1</ele>
      </trkpt>
      <trkpt lat="46.47839" lon="-0.39662">
        <ele>97.1</ele>
      </trkpt>
      <trkpt lat="46.47827" lon="-0.39624">
        <ele>98.8</ele>
      </trkpt>
      <trkpt lat="46.47816" lon="-0.39597">
        <ele>100.5</ele>
      </trkpt>
      <trkpt lat="46.47799" lon="-0.39565">
        <ele>101.9</ele>
      </trkpt>
      <trkpt lat="46.47793" lon="-0.39555">
        <ele>101.9</ele>
      </trkpt>
      <trkpt lat="46.47768" lon="-0.39521">
        <ele>101.2</ele>
      </trkpt>
      <trkpt lat="46.47761" lon="-0.39504">
        <ele>100.5</ele>
      </trkpt>
      <trkpt lat="46.47752" lon="-0.39478">
        <ele>99.3</ele>
      </trkpt>
      <trkpt lat="46.4775" lon="-0.3947">
        <ele>98.9</ele>
      </trkpt>
      <trkpt lat="46.47744" lon="-0.3945">
        <ele>98.6</ele>
      </trkpt>
      <trkpt lat="46.47742" lon="-0.39433">
        <ele>98.4</ele>
      </trkpt>
      <trkpt lat="46.47739" lon="-0.39414">
        <ele>98.6</ele>
      </trkpt>
      <trkpt lat="46.47738" lon="-0.39394">
        <ele>99.2</ele>
      </trkpt>
      <trkpt lat="46.47732" lon="-0.39372">
        <ele>99.9</ele>
      </trkpt>
      <trkpt lat="46.47723" lon="-0.39336">
        <ele>100</ele>
      </trkpt>
      <trkpt lat="46.47721" lon="-0.39329">
        <ele>99.9</ele>
      </trkpt>
      <trkpt lat="46.47713" lon="-0.39304">
        <ele>98.9</ele>
      </trkpt>
      <trkpt lat="46.47706" lon="-0.39282">
        <ele>98.2</ele>
      </trkpt>
      <trkpt lat="46.47702" lon="-0.39272">
        <ele>97.7</ele>
      </trkpt>
      <trkpt lat="46.47698" lon="-0.39259">
        <ele>97.2</ele>
      </trkpt>
      <trkpt lat="46.47692" lon="-0.39246">
        <ele>96.6</ele>
      </trkpt>
      <trkpt lat="46.47685" lon="-0.39235">
        <ele>96</ele>
      </trkpt>
      <trkpt lat="46.47678" lon="-0.39224">
        <ele>95.6</ele>
      </trkpt>
      <trkpt lat="46.47666" lon="-0.39206">
        <ele>95.4</ele>
      </trkpt>
      <trkpt lat="46.47656" lon="-0.39193">
        <ele>95.4</ele>
      </trkpt>
      <trkpt lat="46.47647" lon="-0.39181">
        <ele>96.5</ele>
      </trkpt>
      <trkpt lat="46.47635" lon="-0.39168">
        <ele>97.9</ele>
      </trkpt>
      <trkpt lat="46.47629" lon="-0.39159">
        <ele>98.4</ele>
      </trkpt>
      <trkpt lat="46.47624" lon="-0.39151">
        <ele>98.9</ele>
      </trkpt>
      <trkpt lat="46.47621" lon="-0.39146">
        <ele>99.2</ele>
      </trkpt>
      <trkpt lat="46.47611" lon="-0.3913">
        <ele>100.9</ele>
      </trkpt>
      <trkpt lat="46.47605" lon="-0.39122">
        <ele>102.1</ele>
      </trkpt>
      <trkpt lat="46.4759" lon="-0.39107">
        <ele>103.9</ele>
      </trkpt>
      <trkpt lat="46.47572" lon="-0.39089">
        <ele>105.3</ele>
      </trkpt>
      <trkpt lat="46.47559" lon="-0.39076">
        <ele>106.1</ele>
      </trkpt>
      <trkpt lat="46.47556" lon="-0.39072">
        <ele>106.4</ele>
      </trkpt>
      <trkpt lat="46.4755" lon="-0.3907">
        <ele>106.8</ele>
      </trkpt>
      <trkpt lat="46.47541" lon="-0.39072">
        <ele>107.3</ele>
      </trkpt>
      <trkpt lat="46.47536" lon="-0.3907">
        <ele>107.5</ele>
      </trkpt>
      <trkpt lat="46.4753" lon="-0.39063">
        <ele>107.9</ele>
      </trkpt>
      <trkpt lat="46.47519" lon="-0.39051">
        <ele>108.2</ele>
      </trkpt>
      <trkpt lat="46.47512" lon="-0.3904">
        <ele>108.2</ele>
      </trkpt>
      <trkpt lat="46.47492" lon="-0.38999">
        <ele>106.1</ele>
      </trkpt>
      <trkpt lat="46.4747" lon="-0.38954">
        <ele>102.7</ele>
      </trkpt>
      <trkpt lat="46.47461" lon="-0.38929">
        <ele>101.6</ele>
      </trkpt>
      <trkpt lat="46.47457" lon="-0.38911">
        <ele>101.5</ele>
      </trkpt>
      <trkpt lat="46.47452" lon="-0.38896">
        <ele>101.9</ele>
      </trkpt>
      <trkpt lat="46.47443" lon="-0.38881">
        <ele>102.5</ele>
      </trkpt>
      <trkpt lat="46.47431" lon="-0.38864">
        <ele>103.3</ele>
      </trkpt>
      <trkpt lat="46.47422" lon="-0.38853">
        <ele>103.7</ele>
      </trkpt>
      <trkpt lat="46.47413" lon="-0.38842">
        <ele>104.4</ele>
      </trkpt>
      <trkpt lat="46.47402" lon="-0.38827">
        <ele>105.3</ele>
      </trkpt>
      <trkpt lat="46.47398" lon="-0.38816">
        <ele>106</ele>
      </trkpt>
      <trkpt lat="46.47395" lon="-0.38799">
        <ele>107</ele>
      </trkpt>
      <trkpt lat="46.47393" lon="-0.38777">
        <ele>107.9</ele>
      </trkpt>
      <trkpt lat="46.47394" lon="-0.38738">
        <ele>109.4</ele>
      </trkpt>
      <trkpt lat="46.47393" lon="-0.38708">
        <ele>110.5</ele>
      </trkpt>
      <trkpt lat="46.47387" lon="-0.38704">
        <ele>110.7</ele>
      </trkpt>
      <trkpt lat="46.47365" lon="-0.387">
        <ele>111.5</ele>
      </trkpt>
      <trkpt lat="46.47325" lon="-0.38695">
        <ele>112.3</ele>
      </trkpt>
      <trkpt lat="46.473" lon="-0.38694">
        <ele>113.2</ele>
      </trkpt>
      <trkpt lat="46.47292" lon="-0.38693">
        <ele>113.5</ele>
      </trkpt>
      <trkpt lat="46.47283" lon="-0.38673">
        <ele>114</ele>
      </trkpt>
      <trkpt lat="46.47246" lon="-0.38628">
        <ele>113.9</ele>
      </trkpt>
      <trkpt lat="46.47234" lon="-0.38609">
        <ele>113.4</ele>
      </trkpt>
      <trkpt lat="46.47221" lon="-0.38598">
        <ele>112.9</ele>
      </trkpt>
      <trkpt lat="46.47183" lon="-0.38589">
        <ele>111.2</ele>
      </trkpt>
      <trkpt lat="46.47156" lon="-0.38581">
        <ele>109.3</ele>
      </trkpt>
      <trkpt lat="46.47117" lon="-0.38574">
        <ele>106.7</ele>
      </trkpt>
      <trkpt lat="46.47112" lon="-0.38562">
        <ele>106.8</ele>
      </trkpt>
      <trkpt lat="46.47106" lon="-0.38567">
        <ele>106.5</ele>
      </trkpt>
      <trkpt lat="46.47092" lon="-0.38576">
        <ele>106.1</ele>
      </trkpt>
      <trkpt lat="46.47073" lon="-0.38593">
        <ele>105.4</ele>
      </trkpt>
      <trkpt lat="46.47046" lon="-0.38621">
        <ele>105.1</ele>
      </trkpt>
      <trkpt lat="46.47027" lon="-0.38636">
        <ele>105.9</ele>
      </trkpt>
      <trkpt lat="46.47012" lon="-0.38639">
        <ele>106.5</ele>
      </trkpt>
      <trkpt lat="46.46991" lon="-0.38644">
        <ele>107.7</ele>
      </trkpt>
      <trkpt lat="46.46976" lon="-0.38648">
        <ele>108.5</ele>
      </trkpt>
      <trkpt lat="46.4696" lon="-0.38653">
        <ele>109.9</ele>
      </trkpt>
      <trkpt lat="46.46949" lon="-0.38664">
        <ele>111.5</ele>
      </trkpt>
      <trkpt lat="46.46934" lon="-0.38677">
        <ele>112.4</ele>
      </trkpt>
      <trkpt lat="46.46919" lon="-0.38695">
        <ele>113</ele>
      </trkpt>
      <trkpt lat="46.46899" lon="-0.38717">
        <ele>112.4</ele>
      </trkpt>
      <trkpt lat="46.46893" lon="-0.38728">
        <ele>112.1</ele>
      </trkpt>
      <trkpt lat="46.46896" lon="-0.38744">
        <ele>112.1</ele>
      </trkpt>
      <trkpt lat="46.46943" lon="-0.38767">
        <ele>113.4</ele>
      </trkpt>
      <trkpt lat="46.46963" lon="-0.38785">
        <ele>113.7</ele>
      </trkpt>
      <trkpt lat="46.47002" lon="-0.38825">
        <ele>114.7</ele>
      </trkpt>
      <trkpt lat="46.47031" lon="-0.38853">
        <ele>115</ele>
      </trkpt>
      <trkpt lat="46.4706" lon="-0.38872">
        <ele>115</ele>
      </trkpt>
      <trkpt lat="46.47083" lon="-0.3888">
        <ele>115</ele>
      </trkpt>
      <trkpt lat="46.47093" lon="-0.38887">
        <ele>115.3</ele>
      </trkpt>
      <trkpt lat="46.47102" lon="-0.38908">
        <ele>115.9</ele>
      </trkpt>
      <trkpt lat="46.47125" lon="-0.38955">
        <ele>116.7</ele>
      </trkpt>
      <trkpt lat="46.47157" lon="-0.39023">
        <ele>117.5</ele>
      </trkpt>
      <trkpt lat="46.47172" lon="-0.39061">
        <ele>117.7</ele>
      </trkpt>
      <trkpt lat="46.47182" lon="-0.39091">
        <ele>117</ele>
      </trkpt>
      <trkpt lat="46.47194" lon="-0.39126">
        <ele>117.5</ele>
      </trkpt>
      <trkpt lat="46.47208" lon="-0.39169">
        <ele>117.5</ele>
      </trkpt>
      <trkpt lat="46.47223" lon="-0.39222">
        <ele>118</ele>
      </trkpt>
      <trkpt lat="46.47223" lon="-0.39243">
        <ele>117.3</ele>
      </trkpt>
      <trkpt lat="46.47215" lon="-0.39366">
        <ele>116.6</ele>
      </trkpt>
      <trkpt lat="46.4721" lon="-0.3945">
        <ele>115.6</ele>
      </trkpt>
      <trkpt lat="46.47207" lon="-0.39496">
        <ele>115.5</ele>
      </trkpt>
      <trkpt lat="46.47203" lon="-0.39519">
        <ele>115.3</ele>
      </trkpt>
      <trkpt lat="46.47193" lon="-0.3955">
        <ele>115</ele>
      </trkpt>
      <trkpt lat="46.47179" lon="-0.39585">
        <ele>115.5</ele>
      </trkpt>
      <trkpt lat="46.47169" lon="-0.39612">
        <ele>116</ele>
      </trkpt>
      <trkpt lat="46.4716" lon="-0.39641">
        <ele>116</ele>
      </trkpt>
      <trkpt lat="46.47147" lon="-0.3968">
        <ele>116</ele>
      </trkpt>
      <trkpt lat="46.47133" lon="-0.39727">
        <ele>116.9</ele>
      </trkpt>
      <trkpt lat="46.47116" lon="-0.39793">
        <ele>116.4</ele>
      </trkpt>
      <trkpt lat="46.47105" lon="-0.3984">
        <ele>116</ele>
      </trkpt>
      <trkpt lat="46.47099" lon="-0.39869">
        <ele>115.6</ele>
      </trkpt>
      <trkpt lat="46.47095" lon="-0.39887">
        <ele>115.4</ele>
      </trkpt>
      <trkpt lat="46.47089" lon="-0.39907">
        <ele>115.1</ele>
      </trkpt>
      <trkpt lat="46.47082" lon="-0.39925">
        <ele>114.9</ele>
      </trkpt>
      <trkpt lat="46.47076" lon="-0.39938">
        <ele>114.5</ele>
      </trkpt>
      <trkpt lat="46.47071" lon="-0.39948">
        <ele>114.1</ele>
      </trkpt>
      <trkpt lat="46.47061" lon="-0.39965">
        <ele>113.8</ele>
      </trkpt>
      <trkpt lat="46.47046" lon="-0.39985">
        <ele>113</ele>
      </trkpt>
      <trkpt lat="46.47034" lon="-0.40005">
        <ele>112.2</ele>
      </trkpt>
      <trkpt lat="46.47026" lon="-0.40019">
        <ele>111.9</ele>
      </trkpt>
      <trkpt lat="46.4702" lon="-0.40027">
        <ele>111.7</ele>
      </trkpt>
      <trkpt lat="46.47022" lon="-0.40043">
        <ele>111.3</ele>
      </trkpt>
      <trkpt lat="46.47041" lon="-0.40077">
        <ele>111.5</ele>
      </trkpt>
      <trkpt lat="46.47061" lon="-0.40108">
        <ele>111.1</ele>
      </trkpt>
      <trkpt lat="46.47073" lon="-0.40129">
        <ele>110.8</ele>
      </trkpt>
      <trkpt lat="46.47078" lon="-0.40137">
        <ele>110.8</ele>
      </trkpt>
      <trkpt lat="46.47082" lon="-0.40147">
        <ele>110.6</ele>
      </trkpt>
      <trkpt lat="46.47076" lon="-0.40161">
        <ele>109.9</ele>
      </trkpt>
      <trkpt lat="46.47062" lon="-0.40169">
        <ele>109.2</ele>
      </trkpt>
      <trkpt lat="46.4705" lon="-0.40177">
        <ele>109</ele>
      </trkpt>
      <trkpt lat="46.47038" lon="-0.40183">
        <ele>109</ele>
      </trkpt>
      <trkpt lat="46.47019" lon="-0.40188">
        <ele>109.1</ele>
      </trkpt>
      <trkpt lat="46.46997" lon="-0.40193">
        <ele>109.2</ele>
      </trkpt>
      <trkpt lat="46.46973" lon="-0.40198">
        <ele>110</ele>
      </trkpt>
      <trkpt lat="46.46942" lon="-0.40207">
        <ele>111.1</ele>
      </trkpt>
      <trkpt lat="46.4691" lon="-0.40223">
        <ele>113.3</ele>
      </trkpt>
      <trkpt lat="46.46887" lon="-0.40234">
        <ele>114.5</ele>
      </trkpt>
      <trkpt lat="46.46865" lon="-0.40247">
        <ele>115.8</ele>
      </trkpt>
      <trkpt lat="46.46847" lon="-0.40256">
        <ele>116.1</ele>
      </trkpt>
      <trkpt lat="46.46822" lon="-0.40265">
        <ele>116.5</ele>
      </trkpt>
      <trkpt lat="46.46801" lon="-0.40273">
        <ele>116.5</ele>
      </trkpt>
      <trkpt lat="46.46782" lon="-0.40281">
        <ele>115.4</ele>
      </trkpt>
      <trkpt lat="46.46761" lon="-0.4029">
        <ele>114.9</ele>
      </trkpt>
      <trkpt lat="46.46743" lon="-0.403">
        <ele>114.3</ele>
      </trkpt>
      <trkpt lat="46.46727" lon="-0.40307">
        <ele>113.4</ele>
      </trkpt>
      <trkpt lat="46.46714" lon="-0.40315">
        <ele>113</ele>
      </trkpt>
      <trkpt lat="46.46697" lon="-0.40322">
        <ele>112.7</ele>
      </trkpt>
      <trkpt lat="46.46686" lon="-0.4033">
        <ele>112.3</ele>
      </trkpt>
      <trkpt lat="46.4667" lon="-0.40342">
        <ele>111.5</ele>
      </trkpt>
      <trkpt lat="46.46658" lon="-0.40354">
        <ele>111.4</ele>
      </trkpt>
      <trkpt lat="46.46647" lon="-0.40365">
        <ele>111.4</ele>
      </trkpt>
      <trkpt lat="46.46638" lon="-0.40374">
        <ele>111.4</ele>
      </trkpt>
      <trkpt lat="46.46634" lon="-0.40383">
        <ele>111.6</ele>
      </trkpt>
      <trkpt lat="46.46636" lon="-0.40393">
        <ele>111.9</ele>
      </trkpt>
      <trkpt lat="46.4664" lon="-0.40403">
        <ele>112</ele>
      </trkpt>
      <trkpt lat="46.46645" lon="-0.40419">
        <ele>112</ele>
      </trkpt>
      <trkpt lat="46.46652" lon="-0.40453">
        <ele>112.1</ele>
      </trkpt>
      <trkpt lat="46.46658" lon="-0.40481">
        <ele>112.7</ele>
      </trkpt>
      <trkpt lat="46.46665" lon="-0.40503">
        <ele>112.9</ele>
      </trkpt>
      <trkpt lat="46.46676" lon="-0.40536">
        <ele>113.3</ele>
      </trkpt>
      <trkpt lat="46.46686" lon="-0.40561">
        <ele>113.8</ele>
      </trkpt>
      <trkpt lat="46.467" lon="-0.40585">
        <ele>114.2</ele>
      </trkpt>
      <trkpt lat="46.46715" lon="-0.40613">
        <ele>115</ele>
      </trkpt>
      <trkpt lat="46.46733" lon="-0.40643">
        <ele>115.5</ele>
      </trkpt>
      <trkpt lat="46.46746" lon="-0.40664">
        <ele>116</ele>
      </trkpt>
      <trkpt lat="46.46757" lon="-0.40681">
        <ele>116.1</ele>
      </trkpt>
      <trkpt lat="46.46767" lon="-0.40701">
        <ele>116.7</ele>
      </trkpt>
      <trkpt lat="46.46774" lon="-0.40716">
        <ele>117</ele>
      </trkpt>
      <trkpt lat="46.46784" lon="-0.40737">
        <ele>117.6</ele>
      </trkpt>
      <trkpt lat="46.4679" lon="-0.40754">
        <ele>118</ele>
      </trkpt>
      <trkpt lat="46.46796" lon="-0.40775">
        <ele>118</ele>
      </trkpt>
      <trkpt lat="46.46801" lon="-0.40796">
        <ele>118</ele>
      </trkpt>
      <trkpt lat="46.46805" lon="-0.40811">
        <ele>117.8</ele>
      </trkpt>
      <trkpt lat="46.46814" lon="-0.40834">
        <ele>117</ele>
      </trkpt>
      <trkpt lat="46.46831" lon="-0.40867">
        <ele>116.1</ele>
      </trkpt>
      <trkpt lat="46.46846" lon="-0.40894">
        <ele>115.8</ele>
      </trkpt>
      <trkpt lat="46.46865" lon="-0.40923">
        <ele>115.2</ele>
      </trkpt>
      <trkpt lat="46.46878" lon="-0.40944">
        <ele>115.6</ele>
      </trkpt>
      <trkpt lat="46.46887" lon="-0.40963">
        <ele>115.3</ele>
      </trkpt>
      <trkpt lat="46.46897" lon="-0.40984">
        <ele>115.3</ele>
      </trkpt>
      <trkpt lat="46.46904" lon="-0.41006">
        <ele>115.6</ele>
      </trkpt>
      <trkpt lat="46.46912" lon="-0.41033">
        <ele>115.8</ele>
      </trkpt>
      <trkpt lat="46.46917" lon="-0.41064">
        <ele>116</ele>
      </trkpt>
      <trkpt lat="46.46921" lon="-0.41092">
        <ele>115.8</ele>
      </trkpt>
      <trkpt lat="46.46925" lon="-0.41124">
        <ele>115.3</ele>
      </trkpt>
      <trkpt lat="46.46932" lon="-0.41156">
        <ele>115.5</ele>
      </trkpt>
      <trkpt lat="46.46938" lon="-0.41178">
        <ele>115.4</ele>
      </trkpt>
      <trkpt lat="46.46947" lon="-0.41198">
        <ele>115</ele>
      </trkpt>
      <trkpt lat="46.46954" lon="-0.41212">
        <ele>115</ele>
      </trkpt>
      <trkpt lat="46.4696" lon="-0.41221">
        <ele>115</ele>
      </trkpt>
      <trkpt lat="46.46972" lon="-0.41224">
        <ele>115</ele>
      </trkpt>
      <trkpt lat="46.46979" lon="-0.41234">
        <ele>115.1</ele>
      </trkpt>
      <trkpt lat="46.46985" lon="-0.41253">
        <ele>115.5</ele>
      </trkpt>
      <trkpt lat="46.46989" lon="-0.41281">
        <ele>115.5</ele>
      </trkpt>
      <trkpt lat="46.46993" lon="-0.41347">
        <ele>114</ele>
      </trkpt>
      <trkpt lat="46.46996" lon="-0.4142">
        <ele>113</ele>
      </trkpt>
      <trkpt lat="46.47" lon="-0.41488">
        <ele>112</ele>
      </trkpt>
      <trkpt lat="46.47005" lon="-0.41543">
        <ele>110.5</ele>
      </trkpt>
      <trkpt lat="46.47006" lon="-0.4157">
        <ele>109.7</ele>
      </trkpt>
      <trkpt lat="46.47007" lon="-0.41592">
        <ele>108.9</ele>
      </trkpt>
      <trkpt lat="46.47005" lon="-0.4163">
        <ele>108.2</ele>
      </trkpt>
      <trkpt lat="46.47003" lon="-0.41671">
        <ele>107.3</ele>
      </trkpt>
      <trkpt lat="46.47" lon="-0.41698">
        <ele>108</ele>
      </trkpt>
      <trkpt lat="46.46994" lon="-0.41734">
        <ele>107.7</ele>
      </trkpt>
      <trkpt lat="46.46991" lon="-0.41758">
        <ele>108</ele>
      </trkpt>
      <trkpt lat="46.4699" lon="-0.4179">
        <ele>108.9</ele>
      </trkpt>
      <trkpt lat="46.46992" lon="-0.41835">
        <ele>109.7</ele>
      </trkpt>
      <trkpt lat="46.46993" lon="-0.4187">
        <ele>109.7</ele>
      </trkpt>
      <trkpt lat="46.46992" lon="-0.41892">
        <ele>109.7</ele>
      </trkpt>
      <trkpt lat="46.46988" lon="-0.41916">
        <ele>109.6</ele>
      </trkpt>
      <trkpt lat="46.46988" lon="-0.41936">
        <ele>109.6</ele>
      </trkpt>
      <trkpt lat="46.4699" lon="-0.4196">
        <ele>109.1</ele>
      </trkpt>
      <trkpt lat="46.46995" lon="-0.41991">
        <ele>108.3</ele>
      </trkpt>
      <trkpt lat="46.47001" lon="-0.42018">
        <ele>108</ele>
      </trkpt>
      <trkpt lat="46.4701" lon="-0.42043">
        <ele>107.3</ele>
      </trkpt>
      <trkpt lat="46.47018" lon="-0.42059">
        <ele>106.2</ele>
      </trkpt>
      <trkpt lat="46.47033" lon="-0.42088">
        <ele>104.8</ele>
      </trkpt>
      <trkpt lat="46.47049" lon="-0.42121">
        <ele>102.9</ele>
      </trkpt>
      <trkpt lat="46.4706" lon="-0.42144">
        <ele>101.8</ele>
      </trkpt>
      <trkpt lat="46.47064" lon="-0.42158">
        <ele>101.3</ele>
      </trkpt>
      <trkpt lat="46.47067" lon="-0.42174">
        <ele>100.7</ele>
      </trkpt>
      <trkpt lat="46.47071" lon="-0.42209">
        <ele>99.5</ele>
      </trkpt>
      <trkpt lat="46.47076" lon="-0.42243">
        <ele>98.1</ele>
      </trkpt>
      <trkpt lat="46.47077" lon="-0.42249">
        <ele>97.8</ele>
      </trkpt>
      <trkpt lat="46.47078" lon="-0.42252">
        <ele>97.8</ele>
      </trkpt>
      <trkpt lat="46.4708" lon="-0.42264">
        <ele>97.9</ele>
      </trkpt>
      <trkpt lat="46.47085" lon="-0.42283">
        <ele>98.1</ele>
      </trkpt>
      <trkpt lat="46.47097" lon="-0.42323">
        <ele>98.8</ele>
      </trkpt>
      <trkpt lat="46.4709" lon="-0.4236">
        <ele>99.2</ele>
      </trkpt>
      <trkpt lat="46.47084" lon="-0.42397">
        <ele>100</ele>
        <time>2021-09-28T15:06:59Z</time>
      </trkpt>
      <trkpt lat="46.47044" lon="-0.42495">
        <ele>99</ele>
        <time>2021-09-28T15:07:39Z</time>
      </trkpt>
      <trkpt lat="46.46954" lon="-0.42631">
        <ele>96</ele>
        <time>2021-09-28T15:08:44Z</time>
      </trkpt>
      <trkpt lat="46.46921" lon="-0.42664">
        <ele>98</ele>
        <time>2021-09-28T15:09:04Z</time>
      </trkpt>
      <trkpt lat="46.46754" lon="-0.42738">
        <ele>95</ele>
        <time>2021-09-28T15:10:31Z</time>
      </trkpt>
      <trkpt lat="46.4668" lon="-0.42814">
        <ele>85</ele>
        <time>2021-09-28T15:11:16Z</time>
      </trkpt>
      <trkpt lat="46.46625" lon="-0.42903">
        <ele>75</ele>
        <time>2021-09-28T15:11:58Z</time>
      </trkpt>
      <trkpt lat="46.4658" lon="-0.43012">
        <ele>67</ele>
        <time>2021-09-28T15:12:41Z</time>
      </trkpt>
      <trkpt lat="46.46541" lon="-0.4301">
        <ele>64</ele>
        <time>2021-09-28T15:13:01Z</time>
      </trkpt>
      <trkpt lat="46.46507" lon="-0.43055">
        <ele>58</ele>
        <time>2021-09-28T15:13:24Z</time>
      </trkpt>
      <trkpt lat="46.4648" lon="-0.43086">
        <ele>55</ele>
        <time>2021-09-28T15:13:41Z</time>
      </trkpt>
      <trkpt lat="46.46467" lon="-0.43037">
        <ele>59</ele>
        <time>2021-09-28T15:13:59Z</time>
      </trkpt>
      <trkpt lat="46.46466" lon="-0.42912">
        <ele>67</ele>
        <time>2021-09-28T15:14:42Z</time>
      </trkpt>
      <trkpt lat="46.46465" lon="-0.42832">
        <ele>72</ele>
        <time>2021-09-28T15:15:10Z</time>
      </trkpt>
      <trkpt lat="46.46427" lon="-0.42829">
        <ele>75</ele>
        <time>2021-09-28T15:15:29Z</time>
      </trkpt>
      <trkpt lat="46.46331" lon="-0.42752">
        <ele>77</ele>
        <time>2021-09-28T15:16:24Z</time>
      </trkpt>
      <trkpt lat="46.46261" lon="-0.42623">
        <ele>79</ele>
        <time>2021-09-28T15:17:20Z</time>
      </trkpt>
      <trkpt lat="46.46175" lon="-0.42427">
        <ele>81</ele>
        <time>2021-09-28T15:18:41Z</time>
      </trkpt>
      <trkpt lat="46.46155" lon="-0.42399">
        <ele>82</ele>
        <time>2021-09-28T15:18:54Z</time>
      </trkpt>
      <trkpt lat="46.46138" lon="-0.42355">
        <ele>83</ele>
        <time>2021-09-28T15:19:12Z</time>
      </trkpt>
      <trkpt lat="46.46111" lon="-0.42292">
        <ele>85</ele>
        <time>2021-09-28T15:19:37Z</time>
      </trkpt>
      <trkpt lat="46.4607" lon="-0.41932">
        <ele>100</ele>
        <time>2021-09-28T15:21:43Z</time>
      </trkpt>
      <trkpt lat="46.45968" lon="-0.41924">
        <ele>102</ele>
        <time>2021-09-28T15:22:34Z</time>
      </trkpt>
      <trkpt lat="46.45883" lon="-0.41922">
        <ele>104</ele>
        <time>2021-09-28T15:23:17Z</time>
      </trkpt>
      <trkpt lat="46.45844" lon="-0.41934">
        <ele>104</ele>
        <time>2021-09-28T15:23:37Z</time>
      </trkpt>
      <trkpt lat="46.45818" lon="-0.41941">
        <ele>104</ele>
        <time>2021-09-28T15:23:50Z</time>
      </trkpt>
      <trkpt lat="46.45656" lon="-0.42046">
        <ele>102</ele>
        <time>2021-09-28T15:25:19Z</time>
      </trkpt>
      <trkpt lat="46.45556" lon="-0.42139">
        <ele>101</ele>
        <time>2021-09-28T15:26:18Z</time>
      </trkpt>
      <trkpt lat="46.45548" lon="-0.42121">
        <ele>101</ele>
        <time>2021-09-28T15:26:26Z</time>
      </trkpt>
      <trkpt lat="46.45572" lon="-0.42099">
        <ele>102</ele>
        <time>2021-09-28T15:26:40Z</time>
      </trkpt>
      <trkpt lat="46.45568" lon="-0.42072">
        <ele>102</ele>
        <time>2021-09-28T15:26:49Z</time>
      </trkpt>
      <trkpt lat="46.45557" lon="-0.42043">
        <ele>100.4</ele>
      </trkpt>
    </trkseg>
  </trk>
</gpx>